BAW655 LGSA-EGLL

Flight info

Callsign BAW655
Flight time N/A
Altitude 34000
Route SOKRI UY151 DDM DCT IXONI DCT YNN UL611 TUMBO DCT VAKSU DCT MONFA DCT SOTOV DCT XEBIX DCT USUDO DCT LIRSU DCT ARCKY/N0447F350 DCT KENUM/N0446F340 DCT BUB L608 LOGAN
Aircraft A321/M-SDE3FGHIRWY/LB1

Departure

Time 2026-05-08 13:35
Airport Chania International Airport (LGSA)

Arrival

Time N/A
Airport London Heathrow Airport (EGLL)
Time Latitude Longitude Altitude Speed Heading
2026-05-08 12:56 35.53808 24.14256 487 ft 0 kts 22°
2026-05-08 13:25 35.53799 24.14251 487 ft 4 kts 22°
2026-05-08 13:25 35.53774 24.14239 488 ft 4 kts 22°
2026-05-08 13:25 35.53753 24.14229 491 ft 4 kts 33°
2026-05-08 13:25 35.53738 24.14207 488 ft 4 kts 84°
2026-05-08 13:26 35.53741 24.14175 490 ft 4 kts 108°
2026-05-08 13:26 35.53745 24.14159 488 ft 0 kts 111°
2026-05-08 13:28 35.53744 24.14163 489 ft 3 kts 112°
2026-05-08 13:28 35.53730 24.14206 492 ft 7 kts 111°
2026-05-08 13:28 35.53711 24.14264 492 ft 8 kts 111°
2026-05-08 13:28 35.53691 24.14327 492 ft 8 kts 111°
2026-05-08 13:29 35.53650 24.14360 487 ft 8 kts 185°
2026-05-08 13:29 35.53590 24.14337 498 ft 9 kts 196°
2026-05-08 13:29 35.53546 24.14386 491 ft 10 kts 109°
2026-05-08 13:29 35.53518 24.14473 494 ft 12 kts 112°
2026-05-08 13:30 35.53482 24.14586 495 ft 15 kts 111°
2026-05-08 13:30 35.53443 24.14706 490 ft 15 kts 112°
2026-05-08 13:30 35.53403 24.14829 493 ft 16 kts 112°
2026-05-08 13:30 35.53357 24.14970 491 ft 20 kts 111°
2026-05-08 13:31 35.53306 24.15128 493 ft 20 kts 112°
2026-05-08 13:31 35.53254 24.15286 487 ft 20 kts 112°
2026-05-08 13:31 35.53203 24.15444 486 ft 20 kts 111°
2026-05-08 13:31 35.53152 24.15601 495 ft 20 kts 112°
2026-05-08 13:32 35.53101 24.15755 491 ft 19 kts 112°
2026-05-08 13:32 35.53051 24.15911 494 ft 19 kts 111°
2026-05-08 13:32 35.53001 24.16064 492 ft 19 kts 111°
2026-05-08 13:32 35.52953 24.16211 490 ft 15 kts 112°
2026-05-08 13:33 35.52925 24.16271 495 ft 4 kts 154°
2026-05-08 13:33 35.52894 24.16266 496 ft 5 kts 198°
2026-05-08 13:33 35.52863 24.16252 498 ft 5 kts 200°
2026-05-08 13:33 35.52832 24.16237 498 ft 5 kts 203°
2026-05-08 13:34 35.52795 24.16217 493 ft 7 kts 204°
2026-05-08 13:34 35.52788 24.16152 490 ft 10 kts 288°
2026-05-08 13:34 35.52795 24.16127 494 ft 0 kts 291°
2026-05-08 13:34 35.52829 24.16022 496 ft 44 kts 291°
2026-05-08 13:35 35.53037 24.15389 484 ft 113 kts 291°
2026-05-08 13:35 35.53395 24.14287 502 ft 166 kts 293°
2026-05-08 13:35 35.53821 24.12898 1005 ft 177 kts 292°
2026-05-08 13:35 35.54224 24.11447 1714 ft 179 kts 291°
2026-05-08 13:36 35.54587 24.10002 2296 ft 178 kts 289°
2026-05-08 13:36 35.54944 24.08526 2732 ft 183 kts 289°
2026-05-08 13:36 35.55473 24.07086 3172 ft 188 kts 310°
2026-05-08 13:36 35.56477 24.06054 3541 ft 192 kts 337°
2026-05-08 13:37 35.57785 24.05704 3948 ft 196 kts
2026-05-08 13:37 35.59142 24.05952 4406 ft 198 kts 10°
2026-05-08 13:37 35.60506 24.06241 4879 ft 200 kts 10°
2026-05-08 13:37 35.61885 24.06532 5356 ft 201 kts 10°
2026-05-08 13:38 35.63281 24.06538 5846 ft 202 kts 347°
2026-05-08 13:38 35.64548 24.05784 6303 ft 207 kts 324°
2026-05-08 13:38 35.65711 24.04651 6585 ft 218 kts 324°
2026-05-08 13:38 35.66960 24.03485 6729 ft 234 kts 325°
2026-05-08 13:39 35.68328 24.02235 6846 ft 256 kts 325°
2026-05-08 13:39 35.69804 24.00879 7133 ft 270 kts 324°
2026-05-08 13:39 35.71311 23.99477 7670 ft 274 kts 324°
2026-05-08 13:39 35.72837 23.98040 8247 ft 277 kts 324°
2026-05-08 13:40 35.74371 23.96584 8811 ft 279 kts 324°
2026-05-08 13:40 35.75914 23.95115 9391 ft 282 kts 324°
2026-05-08 13:40 35.77471 23.93633 9926 ft 285 kts 323°
2026-05-08 13:40 35.79082 23.92095 10119 ft 302 kts 323°
2026-05-08 13:41 35.80766 23.90485 10250 ft 319 kts 323°
2026-05-08 13:41 35.82567 23.88764 10379 ft 335 kts 323°
2026-05-08 13:41 35.84444 23.86971 10641 ft 346 kts 323°
2026-05-08 13:41 35.86356 23.85143 11121 ft 349 kts 323°
2026-05-08 13:42 35.88287 23.83300 11606 ft 352 kts 323°
2026-05-08 13:42 35.90233 23.81440 12101 ft 355 kts 323°
2026-05-08 13:42 35.92191 23.79564 12590 ft 357 kts 323°
2026-05-08 13:42 35.94160 23.77673 13069 ft 360 kts 323°
2026-05-08 13:43 35.96138 23.75772 13545 ft 362 kts 323°
2026-05-08 13:43 35.98134 23.73853 14014 ft 365 kts 323°
2026-05-08 13:43 36.00144 23.71919 14462 ft 367 kts 323°
2026-05-08 13:43 36.02168 23.69972 14909 ft 370 kts 323°
2026-05-08 13:44 36.04205 23.68013 15346 ft 372 kts 323°
2026-05-08 13:44 36.06252 23.66046 15777 ft 374 kts 323°
2026-05-08 13:44 36.08316 23.64059 16206 ft 377 kts 323°
2026-05-08 13:44 36.10394 23.62056 16627 ft 379 kts 323°
2026-05-08 13:45 36.12483 23.60044 17041 ft 381 kts 323°
2026-05-08 13:45 36.14556 23.58045 17441 ft 384 kts 323°
2026-05-08 13:45 36.16667 23.56009 17823 ft 386 kts 323°
2026-05-08 13:45 36.18790 23.53957 18207 ft 388 kts 323°
2026-05-08 13:46 36.20926 23.51893 18551 ft 390 kts 323°
2026-05-08 13:46 36.23076 23.49826 18907 ft 392 kts 325°
2026-05-08 13:46 36.25402 23.48068 19250 ft 393 kts 335°
2026-05-08 13:46 36.27954 23.46860 19589 ft 394 kts 346°
2026-05-08 13:47 36.30646 23.46202 19925 ft 395 kts 351°
2026-05-08 13:47 36.33369 23.45654 20263 ft 397 kts 351°
2026-05-08 13:47 36.36104 23.45095 20592 ft 399 kts 351°
2026-05-08 13:47 36.38851 23.44527 20912 ft 401 kts 351°
2026-05-08 13:48 36.40678 23.44147 21123 ft 402 kts 351°
2026-05-08 13:48 36.43443 23.43571 21428 ft 404 kts 351°
2026-05-08 13:48 36.46225 23.42989 21752 ft 406 kts 351°
2026-05-08 13:48 36.49024 23.42407 22061 ft 408 kts 351°
2026-05-08 13:49 36.51831 23.41823 22364 ft 410 kts 351°
2026-05-08 13:49 36.54645 23.41238 22673 ft 412 kts 351°
2026-05-08 13:49 36.57485 23.40649 22951 ft 414 kts 351°
2026-05-08 13:49 36.60324 23.40064 23238 ft 415 kts 351°
2026-05-08 13:50 36.63191 23.39473 23519 ft 417 kts 351°
2026-05-08 13:50 36.66062 23.38878 23795 ft 419 kts 351°
2026-05-08 13:50 36.68951 23.38275 24086 ft 421 kts 351°
2026-05-08 13:50 36.71846 23.37668 24345 ft 422 kts 351°
2026-05-08 13:51 36.74708 23.37070 24604 ft 424 kts 351°
2026-05-08 13:51 36.77664 23.36452 24867 ft 426 kts 351°
2026-05-08 13:51 36.80554 23.35849 25112 ft 427 kts 351°
2026-05-08 13:51 36.83495 23.35235 25355 ft 429 kts 351°
2026-05-08 13:52 36.86441 23.34623 25610 ft 431 kts 351°
2026-05-08 13:52 36.89408 23.34009 25856 ft 432 kts 351°
2026-05-08 13:52 36.92381 23.33392 26093 ft 434 kts 351°
2026-05-08 13:52 36.95364 23.32773 26332 ft 435 kts 351°
2026-05-08 13:53 36.98360 23.32149 26562 ft 437 kts 351°
2026-05-08 13:53 37.01366 23.31520 26789 ft 439 kts 351°
2026-05-08 13:53 37.04382 23.30886 27011 ft 440 kts 351°
2026-05-08 13:53 37.07407 23.30245 27240 ft 442 kts 351°
2026-05-08 13:54 37.10438 23.29603 27443 ft 443 kts 351°
2026-05-08 13:54 37.13483 23.28958 27668 ft 444 kts 351°
2026-05-08 13:54 37.16543 23.28316 27869 ft 446 kts 351°
2026-05-08 13:54 37.19605 23.27674 28068 ft 447 kts 351°
2026-05-08 13:55 37.22685 23.27029 28259 ft 448 kts 351°
2026-05-08 13:55 37.25763 23.26382 28447 ft 450 kts 351°
2026-05-08 13:55 37.31952 23.25074 28777 ft 452 kts 351°
2026-05-08 13:56 37.35059 23.24417 28955 ft 453 kts 351°
2026-05-08 13:56 37.38175 23.23756 29133 ft 454 kts 351°
2026-05-08 13:56 37.41249 23.23101 29337 ft 454 kts 351°
2026-05-08 13:56 37.44341 23.22289 29527 ft 454 kts 344°
2026-05-08 13:57 37.47291 23.20878 29723 ft 454 kts 334°
2026-05-08 13:57 37.50018 23.18868 29920 ft 455 kts 325°
2026-05-08 13:57 37.52448 23.16326 30114 ft 456 kts 318°
2026-05-08 13:57 37.54779 23.13609 30306 ft 455 kts 318°
2026-05-08 13:58 37.57105 23.10902 30499 ft 455 kts 318°
2026-05-08 13:58 37.59433 23.08193 30693 ft 455 kts 318°
2026-05-08 13:58 37.61756 23.05489 30876 ft 454 kts 318°
2026-05-08 13:58 37.64080 23.02787 31079 ft 454 kts 318°
2026-05-08 13:59 37.66405 23.00081 31261 ft 454 kts 318°
2026-05-08 13:59 37.68719 22.97385 31447 ft 453 kts 318°
2026-05-08 13:59 37.71034 22.94685 31622 ft 453 kts 318°
2026-05-08 13:59 37.73346 22.91982 31802 ft 453 kts 318°
2026-05-08 14:00 37.75657 22.89278 31970 ft 452 kts 318°
2026-05-08 14:00 37.77964 22.86577 32156 ft 452 kts 318°